Starlink 11440

operational
NORAD ID: 62513 Int'l Des: 2025-004 Owner: SPXS Country: US Constellation: starlink
LEOCIRCULAR

Über Starlink 11440

Beschreibung wird geladen...

Live-Position

3D-Globus wird geladen...

Nächste Überflüge

Höhenverlauf

Altitude vs Time

uPlot chart will show altitude changes over time

Zweizeiliger Elementsatz

1 62513U 25004C 25261.80734865 .00290656 00000-0 21817-2 0 9994
2 62513 42.9992 26.9838 0002074 316.3927 43.6777 15.70934790 40175
Epoch: 18. Sept. 2025 • Age: 14 hours

Aktueller Status

Höhe 354.1 km
Geschwindigkeit 7.70 km/s
Subsatellitenpunkt -0.14°S, 111.75°W
Startdatum 8. Jan. 2025
Alter 0.6 years
Typ internet

Technische Details

Klassifizierung Payload
Masse 960.00 kg
Trockenmasse 910.00 kg
Gesamtmasse 960.00 kg
Länge 0.30 m
Durchmesser 4.10 m
Spannweite 29.00 m
Form Box + pan
Hersteller SPXS
Bus-Typ Starlink V2MD
Phasenstatus In Orbit
Besitzer/Staat SPXS/US

Große Konstellationen

Loading constellations...